Regional Weather Roundup
Issued by NWS

Home | Current Version | Previous Version | Text Only | Print | Product List | Glossary On
Versions: 1 2 3 4 5 6 7 8 9 10 11 12 13 14 15 16 17 18 19 20 21 22 23 24 25 26 27 28 29 30 31 32 33 34 35 36 37 38 39 40 41 42 43 44 45 46 47 48 49 50
000
ASUS43 KMPX 290701
RWRMN
WEATHER ROUNDUP FOR MINNESOTA
NATIONAL WEATHER SERVICE TWIN CITIES/CHANHASSEN MN
200 AM CDT THU JUN 29 2017


NOTE: "FAIR" INDICATES FEW OR NO CLOUDS BELOW 12,000 FEET WITH NO
SIGNIFICANT WEATHER AND/OR OBSTRUCTIONS TO VISIBILITY. N/A MEANS
CURRENT SKY AND/OR WEATHER CONDITIONS ARE NOT AVAILABLE.

MNZ060>063-068>070-290800-
   Twin Cities Metro

CITY           SKY/WX    TMP DP  RH WIND       PRES   REMARKS
TWIN CITIES    CLOUDY    69  59  70 W10       29.63S
ST PAUL        CLOUDY    69  61  75 W12       29.62F
CRYSTAL        CLOUDY    68  58  70 W12       29.62R
BLAINE         PTCLDY    70  61  73 W14       29.62S
LAKEVILLE      PTCLDY    64  59  82 W7        29.64F
EDEN PRAIRIE   MOCLDY    68  59  73 W7        29.63S
SOUTH ST PAUL  CLOUDY    69  59  71 W8        29.62S
LAKE ELMO      CLOUDY    68  61  77 W9        29.63S
$$
MNZ001>005-007-008-013>017-022>024-027-028-290800-
   Northwest Minnesota

CITY           SKY/WX    TMP DP  RH WIND       PRES   REMARKS
BEMIDJI        CLOUDY    60  59  97 N10       29.67R
HALLOCK        FOG       54  54 100 CALM      29.71S VSB 1/4
ROSEAU           N/A     57  54  88 NE5       29.70S HAZE
WARROAD        CLOUDY    57  54  88 NW6       29.71S
CROOKSTON      CLOUDY    61  59  94 NW3       29.71S
FOSSTON        CLOUDY    57  57 100 N6        29.71R
DETROIT LAKES  CLOUDY    59  59 100 N8        29.71S FOG
MOORHEAD       CLOUDY    63  61  94 N10       29.71S
PARK RAPIDS    CLOUDY    61  57  87 NW7       29.67R
MAHNOMEN       CLOUDY    59  58  97 NW6       29.71R
$$
MNZ006-009>011-018-025>026-290800-
   North Central Minnesota

CITY           SKY/WX    TMP DP  RH WIND       PRES   REMARKS
BAUDETTE       CLOUDY    60  59  96 NW8       29.68S
FLAG ISLAND    CLOUDY    63  57  82 N8        29.69S
INTL FALLS     LGT RAIN  60  58  92 NE6       29.65S
WASKISH        CLOUDY    59  57  94 N3        29.66F
BIG FORK       LGT RAIN  59  57  94 CALM      29.64R
LONGVILLE      CLOUDY    61  57  88 NW3       29.63F
GRAND RAPIDS   LGT RAIN  58  58 100 N9        29.63S FOG
CRANE LAKE     DRIZZLE   57  55  94 N3        29.63S
ORR            DRIZZLE   57  55  94 N3        29.59S
COOK           DRIZZLE   59  57  94 N6        29.60F
WALKER         CLOUDY    60  58  96 N8        29.65S
$$
MNZ012-019>021-037-290800-
   Northeast Minnesota

CITY           SKY/WX    TMP DP  RH WIND       PRES   REMARKS
DULUTH         TSTM      58  58 100 NW6       29.54F
ELY            LGT RAIN  57  57 100 NE5       29.58S
HIBBING        LGT RAIN  58  58 100 N8        29.58S
EVELETH        RAIN      60  57  90 N7        29.59S
DULUTH HARBOR  RAIN      52  52 100 S7        29.56S
TWO HARBORS    RAIN      61  55  82 CALM      29.53R
SILVER BAY     HVY RAIN  57  57 100 NE7       29.52S
GRAND MARAIS     N/A     52  52 100 E13G21    29.54F
G MARAIS ARPRT LGT RAIN  55  52  88 NE9G16    29.58F
$$
MNZ029>031-032-039>041-046>048-054>057-064-290800-
   West Central Minnesota

CITY           SKY/WX    TMP DP  RH WIND       PRES   REMARKS
FERGUS FALLS   CLOUDY    63  63 100 N9        29.67F
WHEATON        PTCLDY    59  57  94 CALM      29.71S
MORRIS         CLEAR     61  59  94 N5        29.68F
ALEXANDRIA     CLOUDY    63  59  87 N9        29.70S
ELBOW LAKE     CLOUDY    62  60  93 N7        29.70F
WADENA         CLOUDY    59  57  94 W8        29.68R
GLENWOOD       PTCLDY    61  57  88 NW6       29.69F
APPLETON       CLEAR     61  59  94 CALM      29.69S
BENSON         CLEAR     63  57  82 N7        29.70S
ORTONVILLE     CLEAR     61  57  88 NW5       29.70S
MADISON        CLEAR     63  63 100 W6        29.71S
WILLMAR        FAIR      61  59  94 NW6       29.69F
$$
MNZ033>034-036-042>043-049>051-058-059-290800-
   Central Minnesota

CITY           SKY/WX    TMP DP  RH WIND       PRES   REMARKS
ST CLOUD       CLOUDY    64  61  90 NW9       29.64S
SAUK CENTRE    PTSUNNY   63  58  85 NW8       29.68S
PAYNESVILLE    CLOUDY    63  59  88 NW6       29.68S
AITKIN         CLOUDY    59  57  94 NW7       29.60F
PINE RIVER     CLOUDY    61  61 100 MISG      29.68R
BRAINERD       CLOUDY    61  60  97 NW9       29.63S
STAPLES        CLOUDY    61  57  88 NW8       29.67R
LONG PRAIRIE   MOCLDY    61  57  88 W10       29.68S
LITTLE FALLS   CLOUDY    63  57  82 NW7       29.65S
LITCHFIELD     CLEAR     64  61  88 NW8       29.68R
BUFFALO        PTCLDY    65  59  78 W8        29.66R
MAPLE LAKE     CLEAR     65  61  87 NW8       29.66S
HUTCHINSON     CLEAR     64  61  91 W7        29.68R
$$
MNZ037-044-045-052-053-290800-
   East Central Minnesota

CITY           SKY/WX    TMP DP  RH WIND       PRES   REMARKS
PRINCETON      CLOUDY    64  61  88 W10       29.63S
MORA           CLOUDY    61  55  82 NW10      29.62S
CAMBRIDGE      CLOUDY    64  57  77 W7        29.60F
RUSH CITY      CLOUDY    64  59  82 W5        29.61S
MOOSE LAKE     CLOUDY    59  57  94 W7        29.57R
HINCKLEY       CLOUDY    63  61  94 NW8       29.59S
CLOQUET        RAIN      59  57  94 W7        29.56S
MCGREGOR       CLOUDY    59  59 100 NW8       29.60F
$$
MNZ071>073-080-081-089-090-097-098-290800-
   Southwest Minnesota

CITY           SKY/WX    TMP DP  RH WIND       PRES   REMARKS
MONTEVIDEO     CLEAR     61  55  82 CALM      29.69F
GRANITE FALLS  CLEAR     61  59  93 W5        29.71F
CANBY          CLEAR     61  58  90 CALM      29.73R
MARSHALL       CLEAR     61  58  90 W5        29.72S
REDWOOD FALLS  CLEAR     64  60  87 NW8       29.70R
OLIVIA         CLEAR     61  57  88 NW6       29.69S
PIPESTONE      PTCLDY    64  57  77 CALM      29.75S
WINDOM         CLEAR     61  57  88 CALM      29.72S
WORTHINGTON    CLEAR     62  59  90 NW5       29.75R
JACKSON        CLEAR     63  59  88 CALM      29.73S
TRACY          CLEAR     64  60  86 W5        29.73R
SLAYTON        CLEAR     60  57  92 NW6       29.74S
$$
MNZ065>067-074>077-082>085-091>093-290800-
   South Central Minnesota

CITY           SKY/WX    TMP DP  RH WIND       PRES   REMARKS
MANKATO        CLEAR     65  61  87 NW8       29.68S
NEW ULM        CLEAR     64  59  82 NW7       29.69R
ST JAMES       CLEAR     64  61  88 W7        29.70F
FAIRMONT       CLEAR     65  61  87 NW7       29.71S
GLENCOE        CLEAR     65  62  90 W7        29.66S
FARIBAULT      PTCLDY    64  61  88 W5        29.66F
OWATONNA       CLEAR     64  61  88 W6        29.67S
WASECA         PTCLDY    61  59  94 W5        29.68F
ALBERT LEA     CLEAR     64  61  88 W5        29.69R
$$
MNZ078>079-086>088-094>096-290800-
   Southeast Minnesota

CITY           SKY/WX    TMP DP  RH WIND       PRES   REMARKS
ROCHESTER      CLEAR     65  64  97 W9        29.68R
RED WING       PTCLDY    66  57  72 W6        29.60F
STANTON        CLEAR     65  60  82 W7        29.63F
DODGE CENTER   CLEAR     63  59  88 W7        29.67S
WINONA         CLEAR     70  64  83 W3        29.62S
AUSTIN         CLEAR     64  63  94 CALM      29.68S FOG
PRESTON        CLEAR     65  62  90 W10       29.66F
$$
ABBREVIATIONS USED IN REMARKS
   TC - TEMPERATURES IN CELSIUS
  WCI - WIND CHILL INDEX
   HX - HEAT INDEX
  VSB - VISIBILITY
$$




USA.gov is the U.S. government's official web portal to all federal, state and local government web resources and services.